Voltar ao catálogo

SL-18 R/B

AtivoLEO
NORAD 22562·ROCKET BODY·🇷🇺 Russia

Lançado Mar 25, 1993 de Plesetsk Cosmodrome

Loading…

Próximas Passagens (próximas 24 horas)

TLE

AtualizadoSource: Space-Track

Época: Sep 14, 2026, 07:09 UTC

1 22562U 93014B   26257.29830346  .00000102  00000-0  38619-4 0  9995
2 22562  75.7631  22.2550 0161995  30.9729 330.0860 14.30645405744574

Acompanhe SL-18 R/B em tempo real com AllMySat

Download on the App Store